Погода в Свободе

Россия / Калининградская область     54°32′37″N   21°43′49″E
темп.,
°C
ветер,
м/с
пор.,
м/с
влажн.,
%
обл.,
%
осадки,
мм/ч
давл.,
гПа
погр.,
м
14 мая, пт
пт1423:00+6св229626 0.0 100241
02:00+8св129199 0.0 100280
05:00+5сз119417 0.0 100112
08:00+10юз22804 0.0 1001372
11:00+14ююз246979 0.0 10011077
14:00+14з4570100 0.1 1002706
17:00+16з23622 0.0 10021268
20:00+11сз2287100 0.0 100337
15 мая, сб
сб1523:00+7ссз229559 0.0 100416
02:00+6юз00935 0.0 100510
05:00+6зюз119446 0.0 100610
08:00+10юз2381100 0.0 1006209
11:00+15юз337365 0.0 1007843
14:00+15зюз567986 0.3 1007853
17:00+13зюз4687100 0.3 1008519
20:00+11юз1294100 0.3 100831
16 мая, вс
вс1623:00+9ююв229698 0.0 100817
02:00+8ююв2295100 0.0 100833
05:00+8ююв369598 0.0 1008104
08:00+12ююв3784100 0.0 1008288
11:00+16ююв487587 0.1 1007877
14:00+17ююв598499 2.1 10061013
17:00+17ююв478598 2.6 1004847
20:00+13ююз3696100 8.1 1003275
17 мая, пн
пн1723:00+11ююз2397100 0.1 100378
02:00+11зюз3797100 0.5 1004297
05:00+11ююз359399 0.4 1004131
08:00+13ююз46845 0.4 1006385
11:00+16ююз56717 0.5 10061166
14:00+17ююз5764100 1.6 10051608
17:00+14юз3686100 0.9 1005406
20:00+12ю349098 1.4 100576
18 мая, вт
вт1823:00+10ю3595100 0.0 1005105
02:00+9ю36965 0.0 1005114
05:00+8ю37965 0.0 1004147
08:00+12юз468843 0.0 1005508
11:00+13зюз578174 0.1 1006860
14:00+14зюз577795 1.0 10071126
17:00+14з47816 1.6 1007932
20:00+11зюз259128 2.8 1008135